Simultaneous Nadir Overpasses (SNOs) Predictions

Prediction of SNOs between METOP-B and TERRA Satellite Orbit:

Table of predicted SNOs for the next 14.0 days since TLE Epoch: 5/24/2014
Index Date (METOP-B) Time (METOP-B) Lat,Lon (METOP-B) SZA (METOP-B ) Date (TERRA) Time (TERRA) Lat,Lon (TERRA) SZA (TERRA ) Distance(km) Time Diff (sec)
1 05/26/2014 01:01:17 -81.32, 32.25 116.72 05/26/2014 01:01:28 -81.33, 32.38 116.70 2.25 11
2 05/26/2014 01:51:56 81.33,-159.63 63.38 05/26/2014 01:50:54 81.34,-159.81 63.32 3.08 62
3 05/28/2014 20:35:39 -81.33, 99.06 117.15 05/28/2014 20:35:44 -81.33, 98.89 117.16 2.77 5
4 05/28/2014 21:26:19 81.33, -93.20 62.90 05/28/2014 21:25:10 81.34, -93.33 62.86 2.28 69
5 05/31/2014 15:19:22 81.32, -2.50 62.36 05/31/2014 15:20:33 81.31, -2.68 62.37 3.14 71
6 05/31/2014 16:10:01 -81.33, 165.43 117.58 05/31/2014 16:09:59 -81.33, 165.28 117.60 2.62 2
7 06/03/2014 10:53:45 81.32, 63.84 61.97 06/03/2014 10:54:48 81.32, 63.93 62.01 1.37 63
8 06/03/2014 11:44:25 -81.32,-128.62 118.01 06/03/2014 11:44:15 -81.32,-128.47 118.00 2.61 10
9 06/06/2014 06:28:07 81.32, 130.54 61.68 06/06/2014 06:29:03 81.32, 130.40 61.69 2.33 56




NCC Satellite Simultaneous Nadir Overpasses (SNOs) Prediction Service
